Location: Asheville, NC
(35.6000°N, 82.5500°W)
Time: 18:35:15
(UTC-04:00)

DOVE 4 - Pass Details

Date: 09 March 2018
Orbit: 589 x 803 km, 97.7° (Epoch: 19 June)

Event Time Altitude Azimuth Distance (km) Brightness Sun altitude
Rises 04:47:05 0° 16° (NNE) 3,312 ? -25.5°
Reaches altitude 10° 04:49:30 10° 21° (NNE) 2,368 ? -25.0°
Maximum altitude 04:54:41 57° 100° (E) 908 ? -24.0°
Drops below altitude 10° 04:59:37 10° 178° (S) 2,266 ? -23.0°
Sets 05:01:53 0° 183° (S) 3,156 ? -22.6°
Enters shadow 05:02:05 -1° 183° (S) 3,234 ? -22.5°
